Location: Newark
(43.0000°N, 1.6781°W)
Time: 22:40:04
(UTC+00:00)

Vanguard 1 - Pass Details

Date: 09 December 2021
Orbit: 652 x 3830 km, 34.2° (Epoch: 16 January)

Event Time Altitude Azimuth Distance (km) Brightness Sun altitude
Exits shadow 02:41:38 59° 164° (SSE) 3,875 12.7 -50.9°
Drops below altitude 10° 02:56:28 10° 119° (ESE) 5,482 14.2 -48.3°
Sets 02:59:58 0° 116° (ESE) 6,153 14.6 -47.7°
